#timestamp,LO_Frequency,Hit,StdDev 
1506175215.4,286047000.2,N
1506175235.2,286047003.9,N
1506175255.1,286047004.2,N
1506175256.0,286047004.2,N
1506175275.8,286047005.3,N
1506175295.6,286047001.3,N
1506175315.5,286046999.7,N
1506175335.3,286046999.0,N
1506175355.1,286047001.0,N
1506175375.9,286047000.3,N
1506175395.7,286046996.5,N
1506175415.5,286046999.7,N
1506175435.4,286047000.7,N
1506175455.2,286046998.5,N
1506175475.0,286047002.8,N
1506175475.9,286047002.8,N
1506175495.7,286047000.8,N
1506175515.6,286047001.1,N
1506175535.4,286046999.5,N
1506175555.2,286046996.9,N
1506175575.1,286046999.6,N
1506175576.0,286046999.6,N
1506175595.8,286047000.8,N
1506175615.6,286046996.5,N
1506175635.5,286046996.9,N
1506175655.3,286047001.1,N
1506175675.1,286046999.3,N
1506175695.9,286047000.5,N
1506175715.7,286046996.8,N
1506175735.5,286046999.0,N
1506175755.4,286047003.7,N
1506175775.2,286047002.7,N
1506175795.0,286047001.8,N
1506175795.9,286047001.8,N
1506175815.8,286047002.6,N
1506175835.6,286047000.4,N
1506175855.4,286046999.4,N
1506175875.3,286046996.9,N
1506175895.1,286046993.7,Y
1506175896.0,286046993.7,P
1506175915.8,286046995.7,N
1506175935.7,286046998.1,N
1506175955.5,286046997.0,N
1506175975.3,286046997.7,N
1506175995.1,286046997.3,N
1506176015.9,286046995.3,N
1506176035.7,286046995.8,N
1506176055.5,286046996.9,N
1506176075.4,286046999.4,N
1506176095.2,286046997.1,N
1506176115.0,286047001.2,N
1506176115.9,286047001.2,N
1506176135.8,286046998.5,N
1506176155.6,286046998.5,N
1506176175.4,286046998.9,N
1506176195.3,286046996.6,N
1506176215.1,286046996.7,N
1506176216.0,286046996.7,N
1506176235.8,286046997.4,N
1506176255.7,286046996.6,N
1506176275.5,286046999.7,N
1506176295.3,286047000.9,N
1506176315.2,286047002.4,N
1506176335.9,286047005.9,N
1506176355.7,286047004.2,N
1506176375.5,286047000.4,N
1506176395.4,286047001.6,N
1506176415.2,286047002.8,N
1506176435.0,286046999.3,N
1506176435.9,286046999.3,N
1506176455.8,286047001.1,N
1506176475.6,286046998.5,N
1506176495.4,286046998.7,N
1506176515.3,286046997.5,N
1506176535.1,286046997.0,N
1506176555.8,286046998.7,N
1506176575.7,286046995.1,N
1506176595.5,286046995.2,N
1506176615.3,286046995.1,N
1506176635.2,286046994.8,N
1506176655.9,286046996.3,N
1506176675.7,286046999.6,N
1506176695.6,286046995.0,N
1506176715.4,286046992.2,N
1506176735.2,286046994.9,N
1506176755.1,286046997.6,N
1506176756.0,286046997.6,N
1506176775.8,286046995.2,N
1506176795.6,286046995.6,N
1506176815.4,286046993.8,N
1506176835.3,286046993.5,N
1506176855.1,286046995.0,N
1506176875.8,286046997.5,N
1506176895.7,286046999.4,N
1506176915.5,286046997.0,N
1506176935.3,286046999.2,N
1506176955.2,286046997.2,N
1506176975.9,286046996.2,N
1506176995.7,286046994.6,N
1506177015.6,286046997.1,N
1506177035.4,286046996.9,N
1506177055.2,286046997.7,N
1506177075.1,286046999.3,N
1506177076.0,286046999.3,N
1506177095.8,286046999.3,N
1506177115.6,286047002.6,N
1506177135.5,286046997.2,N
1506177155.3,286046999.1,N
1506177175.1,286046999.3,N
1506177195.8,286047002.3,N
1506177215.7,286046998.2,N
1506177235.5,286046996.7,N
1506177255.3,286047000.4,N
1506177275.2,286046998.4,N
1506177295.9,286046998.7,N
1506177315.7,286046999.0,N
1506177335.6,286046998.4,N
1506177355.4,286046996.9,N
1506177375.2,286046999.1,N
1506177395.1,286047000.3,N
1506177396.0,286047000.3,N
1506177415.8,286046999.2,N
1506177435.6,286046999.0,N
1506177455.5,286046998.4,N
1506177475.3,286046997.7,N
1506177495.1,286046998.0,N
1506177515.9,286046992.1,Y
1506177535.7,286046994.0,P
1506177555.5,286046994.2,N
1506177575.4,286046992.1,P
1506177595.2,286046992.9,Y
1506177615.0,286047000.5,P
1506177615.9,286047000.5,N
1506177635.8,286047002.2,N
1506177655.6,286047001.7,N
1506177675.4,286047003.1,N
1506177695.3,286047004.0,N
1506177715.1,286047003.7,N
1506177716.0,286047003.7,N
1506177735.8,286046999.8,N
1506177755.6,286046998.4,N
1506177775.5,286046999.0,N
1506177795.3,286046998.0,N
1506177815.1,286046998.1,N
1506177835.9,286046996.9,N
1506177855.7,286046997.3,N
1506177875.5,286046998.3,N
1506177895.4,286046998.8,N
1506177915.2,286047001.8,N
1506177935.0,286047000.9,N
1506177935.9,286047000.9,N
1506177955.8,286046996.5,N
1506177975.6,286047002.0,N
1506177995.4,286047001.8,N
1506178015.3,286047003.4,N
1506178035.1,286047003.4,N
1506178036.0,286047003.4,N
1506178055.8,286047006.9,N
1506178075.6,286047003.3,N
1506178095.5,286047003.6,N
1506178115.3,286047005.3,N
1506178135.1,286047004.8,N
1506178155.9,286047003.7,N
1506178175.7,286047004.8,N
1506178195.5,286047003.4,N
1506178215.4,286047004.7,N
1506178235.2,286047004.5,N
1506178255.0,286047007.5,N
1506178255.9,286047007.5,N
1506178275.8,286047007.3,N
1506178295.6,286047006.4,N
1506178315.4,286047008.7,N
1506178335.3,286047004.7,N
1506178355.1,286047006.5,N
1506178356.0,286047006.5,N
1506178375.8,286047003.9,N
1506178395.7,286047002.0,N
1506178415.5,286047004.1,N
1506178435.3,286047000.2,N
1506178455.2,286047003.5,N
1506178475.9,286047005.9,N
1506178495.7,286047005.4,N
1506178515.5,286047004.3,N
1506178535.4,286047003.7,N
1506178555.2,286047005.5,Y
1506178575.0,286046998.1,P
1506178576.0,286046998.1,N
1506178595.8,286047000.8,N
1506178615.6,286046999.1,N
1506178635.4,286047001.5,N
1506178655.3,286047000.3,N
1506178675.1,286047004.2,N
1506178695.8,286046999.7,N
1506178715.7,286047000.8,N
1506178735.5,286046998.8,N
1506178755.3,286046997.6,N
1506178775.2,286046999.4,N
1506178795.9,286046997.7,N
